Location: Oshawa
(43.9000°N, 78.8670°W)
Time: 23:52:40
(UTC-04:00)

Iridium 54 - Visible Passes

Search period start: 22 July 2014 00:00
Search period end: 01 August 2014 00:00
Orbit: 776 x 779 km, 86.4° (Epoch: 22 July)

Date Brightness Start Highest point End Pass type
(mag) Time Alt. Az. Time Alt. Az. Time Alt. Az.
22 Jul 7.5 22:50:01 10° NNW 22:54:13 25° W 22:58:23 10° SW visible
23 Jul 6.6 22:15:58 10° NNW 22:20:54 44° W 22:25:49 10° SSW visible
24 Jul 5.7 21:42:15 10° N 21:47:28 80° W 21:52:40 10° S visible
25 Jul 8.1 22:50:43 10° NW 22:54:08 18° WNW 22:57:32 10° WSW visible
26 Jul 7.3 22:16:21 10° NNW 22:20:54 31° W 22:25:25 10° SW visible
27 Jul 6.2 21:42:26 10° NNW 21:47:32 56° W 21:52:36 10° SSW visible
28 Jul 5.6 21:08:49 10° N 21:14:03 82° E 21:19:15 10° S visible
28 Jul 8.3 22:51:53 10° NW 22:54:00 13° WNW 22:56:06 10° W visible
29 Jul 7.9 22:16:52 10° NNW 22:20:50 22° W 22:24:47 10° SW visible
30 Jul 7.0 21:42:43 10° NNW 21:47:33 39° W 21:52:21 10° SSW visible
31 Jul 5.9 21:08:56 10° N 21:14:08 71° W 21:19:18 10° S visible
